Weather Roundup
Issued by NWS Chicago, IL

Home | Current Version | Previous Version | Text Only | Print | Product List | Glossary Off
Versions: 1 2 3 4 5 6 7 8 9 10 11 12 13 14 15 16 17 18 19 20 21 22 23 24 25 26 27 28 29 30 31 32 33 34 35 36 37 38 39 40 41 42 43 44 45 46 47 48 49 50

000
NZUS59 KLOT 202110
HRRLOT

CHICAGO AREA WEATHER ROUNDUP
NATIONAL WEATHER SERVICE CHICAGO/ROMEOVILLE IL
400 PM CDT MON OCT 20 2014

NOTE: "FAIR" INDICATES FEW OR NO CLOUDS BELOW 12,000 FEET WITH NO
SIGNIFICANT WEATHER AND/OR OBSTRUCTIONS TO VISIBILITY.

* THESE STATIONS ARE NOT UNDER NWS QUALITY CONTROL. THEY ALSO MAY NOT
  REPORT WEATHER SUCH AS PRECIPITATION OR FOG.

ILZ005-006-012>014-019>023-202200-
NORTHEAST ILLINOIS

CITY           SKY/WX    TMP DP  RH WIND       PRES   REMARKS
OHARE          PTSUNNY   59  48  67 NE13      29.87R
MIDWAY         PTSUNNY   61  50  67 NE8       29.87R
AURORA         SUNNY     64  40  41 NW16G23   29.89R
LANSING*       CLOUDY    58  49  70 N8        29.87R
JOLIET*        PTSUNNY   65  44  47 NW8G18    29.87R
WAUKEGAN       CLOUDY    53  45  74 N7        29.89R
DUPAGE AIRPORT MOSUNNY   64  43  46 NW21      29.88R
WHEELING       CLOUDY    57  47  69 N12       29.90R
KANKAKEE*      MOSUNNY   65  49  55 NW15G22   29.86R
MORRIS*        MOSUNNY   67  46  47 NW8G18    29.87R
LEWIS AIRPORT* PTSUNNY   62  42  48 NW8G17    29.87R
NORTHERLY IS     N/A     55  49  80 N9          N/A
$$

WIZ051-052-058>065-066-070>072-202200-
SOUTHEAST WISCONSIN

CITY           SKY/WX    TMP DP  RH WIND       PRES   REMARKS
MILWAUKEE      CLOUDY    55  42  61 N14       29.90R
KENOSHA*       CLOUDY    55  45  68 N6        29.90R
RACINE*        CLOUDY    53  46  77 N8        29.91R
BURLINGTON     CLOUDY    54  41  61 NW12G22   29.91R
WEST BEND      CLOUDY    52  41  66 NW9       29.91R
$$

INZ001>003-010>013-019-020-202200-
NORTHWEST INDIANA

CITY           SKY/WX    TMP DP  RH WIND       PRES   REMARKS
GARY*          PTSUNNY   57  48  72 N10       29.87R
MICHIGAN CITY* NOT AVBL
RENSSELAER*    NOT AVBL
VALPARAISO     PTSUNNY   59  47  64 N8        29.86R
$$

LMZ740>746-202200-
SOUTHERN LAKE MICHIGAN

STATION/POSITION TIME  SKY/WX   TEMP WIND        PRES    VSBY
                                AIR  DIR/SP/G
                 (UTC)          (F)  (DEG/KT/KT) (MB)    (MI)
HARRISON CRIB    2100            54  360/ 15/ 17   N/A
BURNHAM HARBOR   2100            55   10/ 10/ 12   N/A
CALUMET HARBOR   2100            55  360/  9/ 12 1010.4R
BURNS HARBOR     NOT AVBL
MICHIGAN CITY    2100            53  350/ 12/ 13   N/A
$$

ABBREVIATIONS USED IN REMARKS
   TC - TEMPERATURE IN CELSIUS
  WCI - WIND CHILL INDEX
   HX - HEAT INDEX
  VSB - VISIBILITY
$$



USA.gov is the U.S. government's official web portal to all federal, state and local government web resources and services.